Change the Weather History Date:

Wednesday, June 26, 2013

  Actual Average Record
Temperature  
Mean Temperature 80 °F 71 °F  
Max Temperature 88 °F 80 °F 97 °F (1952)
Min Temperature 72 °F 62 °F 47 °F (1979)
Degree Days  
Heating Degree Days 0 0  
Month to date heating degree days 24 41  
Since 1 June heating degree days 24 41  
Since 1 July heating degree days 5318 5616  
Cooling Degree Days 15 6  
Month to date cooling degree days 130 105  
Year to date cooling degree days 174 131  
Since 1 June cooling degree days 130 105  
Growing Degree Days 30 (Base 50)    
Moisture  
Dew Point 69 °F    
Average Humidity 70    
Maximum Humidity 90    
Minimum Humidity 50    
Precipitation  
Precipitation T in 0.10 in 1.98 in (1945)
Month to date precipitation 9.32 3.28  
Year to date precipitation 23.92 23.35  
Snow  
Snow 0.00 in 0.00 in 0.00 in (2002)
Month to date snowfall 0.0 0.0  
Since 1 June snowfall 0.0 0.0  
Since 1 July snowfall 46.3 33.8  
Snow Depth 0.00 in    
Sea Level Pressure  
Sea Level Pressure 29.79 in    
Wind  
Wind Speed 6 mph (West)    
Max Wind Speed 17 mph    
Max Gust Speed 23 mph    
Visibility 10 miles    
Events Rain    
T = Trace of Precipitation, MM = Missing Value Source: NWS Daily Summary

Daily Weather History Graph

Daily Weather History Graph

Search for Another Location

Airport or City:

Trip Planner

Search our weather history database for the weather conditions in past years. The results will help you decide how hot, cold, wet, or windy it might be!

Date:

Astronomy

Jun. 26, 2013 Rise Set
Actual Time 5:12 AM EDT 8:24 PM EDT
Civil Twilight 4:38 AM EDT 8:58 PM EDT
Nautical Twilight 3:54 AM EDT 9:42 PM EDT
Astronomical Twilight 3:01 AM EDT 10:35 PM EDT
Moon 10:41 PM EDT (6/26) 9:04 AM EDT (6/26)
Length of Visible Light 16h 20m
Length of Day
15h 11m
Waning Gibbous, 85% of the Moon is Illuminated
Jun 26
Waning Gibbous
Jun 30
Last Quarter
Jul 8
New
Jul 15
First Quarter
Jul 22
Full

Hourly Weather History & Observations

Time (EDT) Temp. Heat Index Dew Point Humidity Pressure Visibility Wind Dir Wind Speed Gust Speed Precip Events Conditions
12:51 AM 73.9 °F - 69.1 °F 85% 29.78 in 9.0 mi WSW 4.6 mph - N/A   Clear
1:51 AM 73.9 °F - 69.1 °F 85% 29.77 in 9.0 mi West 5.8 mph - N/A   Clear
2:51 AM 73.0 °F - 68.0 °F 84% 29.75 in 9.0 mi West 5.8 mph - N/A   Clear
3:51 AM 72.0 °F - 68.0 °F 87% 29.75 in 10.0 mi SW 5.8 mph - N/A   Clear
4:51 AM 73.0 °F - 68.0 °F 84% 29.76 in 10.0 mi Calm Calm - N/A   Clear
5:51 AM 73.9 °F - 68.0 °F 82% 29.78 in 10.0 mi West 3.5 mph - N/A   Mostly Cloudy
6:51 AM 73.0 °F - 69.1 °F 87% 29.78 in 7.0 mi SSW 3.5 mph - 0.00 in Rain Light Rain
7:51 AM 77.0 °F - 70.0 °F 79% 29.78 in 10.0 mi Calm Calm - N/A   Mostly Cloudy
8:51 AM 81.0 °F 83.8 °F 68.0 °F 65% 29.79 in 10.0 mi WNW 10.4 mph - N/A   Mostly Cloudy
9:51 AM 84.0 °F 87.8 °F 69.1 °F 61% 29.78 in 10.0 mi WNW 5.8 mph - N/A   Mostly Cloudy
10:51 AM 86.0 °F 88.8 °F 66.9 °F 53% 29.78 in 10.0 mi West 10.4 mph 17.3 mph N/A   Scattered Clouds
11:51 AM 84.9 °F 87.1 °F 66.0 °F 53% 29.78 in 10.0 mi West 10.4 mph - N/A   Mostly Cloudy
12:51 PM 88.0 °F 90.7 °F 66.9 °F 49% 29.78 in 10.0 mi West 10.4 mph - N/A   Scattered Clouds
1:51 PM 86.0 °F 88.2 °F 66.0 °F 51% 29.77 in 10.0 mi West 10.4 mph - N/A   Mostly Cloudy
2:51 PM 86.0 °F 89.4 °F 68.0 °F 55% 29.77 in 10.0 mi West 9.2 mph - N/A   Mostly Cloudy
3:51 PM 82.0 °F 85.9 °F 70.0 °F 67% 29.78 in 10.0 mi West 11.5 mph - 0.00 in   Overcast
4:51 PM 81.0 °F 84.9 °F 71.1 °F 72% 29.78 in 10.0 mi WNW 9.2 mph - 0.00 in   Overcast
5:51 PM 80.1 °F 83.6 °F 71.1 °F 74% 29.78 in 10.0 mi NW 9.2 mph - N/A   Overcast
6:51 PM 79.0 °F - 70.0 °F 74% 29.80 in 10.0 mi West 8.1 mph - N/A   Mostly Cloudy
7:51 PM 77.0 °F - 71.1 °F 82% 29.82 in 9.0 mi West 5.8 mph - 0.00 in Rain Light Rain
8:51 PM 75.9 °F - 70.0 °F 82% 29.81 in 10.0 mi West 3.5 mph - 0.00 in   Mostly Cloudy
9:51 PM 75.0 °F - 70.0 °F 84% 29.83 in 10.0 mi WSW 3.5 mph - N/A   Mostly Cloudy
10:51 PM 75.0 °F - 70.0 °F 84% 29.83 in 10.0 mi Calm Calm - N/A   Mostly Cloudy
11:51 PM 73.9 °F - 70.0 °F 87% 29.85 in 9.0 mi NE 6.9 mph - N/A   Mostly Cloudy